DW9125 Weather Reports


time (UTC)temp
F
wind
direction
speed
knots
gust
knots
rain 1hr
in
rain 24hr
in
rain mn
in
humidity
%
barometer
mb
20260504081524 48 360 0.0 1.7 0.00 0.00 0.00 80 1005.2
20260504050007 47 360 0.0 0.9 0.00 0.00 0.00 66 1005.7
20260504044506 47 360 0.0 1.7 0.00 0.00 0.00 67 1005.8
20260504043003 46 360 0.0 0.9 0.00 0.00 0.00 65 1006.0
20260504041600 46 360 0.0 0.9 0.00 0.00 0.00 64 1006.0
20260504041500 46 360 0.0 0.9 0.00 0.00 0.00 64 1006.0
20260504040105 46 360 0.0 0.9 0.00 0.00 0.00 65 1006.0
20260504034616 46 360 0.0 0.9 0.00 0.00 0.00 64 1006.0
20260504033103 46 360 0.0 0.9 0.00 0.00 0.00 64 1006.1
20260504031603 45 360 0.0 0.0 0.00 0.00 0.00 64 1006.2
20260504030056 45 360 0.0 0.0 0.00 0.00 0.00 59 1006.2
20260504024557 44 360 0.0 0.0 0.00 0.00 0.00 59 1006.3
20260504023054 44 360 0.0 0.0 0.00 0.00 0.00 58 1006.4
20260504021556 44 360 0.0 0.0 0.00 0.00 0.00 58 1006.5
20260504014554 44 360 0.0 0.0 0.00 0.00 0.00 59 1006.6
20260504013051 44 360 0.0 0.0 0.00 0.00 0.00 58 1006.6
20260504011549 45 360 0.0 0.0 0.00 0.00 0.00 58 1006.5
20260504010048 46 360 0.0 0.0 0.00 0.00 0.00 58 1006.4
20260504004547 47 360 0.0 0.0 0.00 0.00 0.00 50 1006.3
20260504003047 49 360 0.0 0.0 0.00 0.00 0.00 49 1006.2
20260504001545 49 360 0.0 0.0 0.00 0.00 0.00 47 1006.2
20260504000048 50 360 0.0 0.0 0.00 0.00 0.00 46 1006.2
20260503234543 51 360 0.0 0.0 0.00 0.00 0.00 44 1006.1
20260503233042 52 360 0.0 0.0 0.00 0.00 0.00 44 1006.1
20260503231543 52 360 0.0 0.0 0.00 0.00 0.00 42 1006.0
20260503230049 53 360 0.0 0.0 0.00 0.00 0.00 40 1006.0
20260503224542 53 360 0.0 0.0 0.00 0.00 0.00 39 1006.0
20260503223041 54 360 0.0 0.0 0.00 0.00 0.00 39 1006.0
20260503221539 53 360 0.0 0.9 0.00 0.00 0.00 40 1006.0
20260503220039 54 360 0.0 0.9 0.00 0.00 0.00 42 1006.0
20260503214541 53 360 0.0 0.9 0.00 0.00 0.00 43 1006.2
20260503213036 53 360 0.0 0.0 0.00 0.00 0.00 43 1006.2
20260503211543 52 360 0.0 0.0 0.00 0.00 0.00 44 1006.1
20260503210034 53 360 0.0 0.0 0.00 0.00 0.00 44 1006.1
20260503204534 53 360 0.0 0.9 0.00 0.00 0.00 43 1006.2
20260503203028 52 360 0.0 0.9 0.00 0.00 0.00 46 1006.3
20260503201527 51 360 0.0 0.9 0.00 0.00 0.00 46 1006.4
20260503200034 52 360 0.0 0.9 0.00 0.00 0.00 47 1006.6
20260503194523 51 360 0.0 0.0 0.00 0.00 0.00 47 1006.7
20260503193028 51 360 0.0 0.9 0.00 0.00 0.00 48 1006.9
20260503191520 51 360 0.0 0.0 0.00 0.00 0.00 47 1007.1
20260503190017 50 360 0.0 0.0 0.00 0.00 0.00 51 1007.1
20260503184516 50 360 0.0 0.0 0.00 0.00 0.00 51 1007.2
20260503183015 49 360 0.0 0.0 0.00 0.00 0.00 52 1007.3
20260503181514 50 360 0.0 0.0 0.00 0.00 0.00 51 1007.4
20260503180011 49 360 0.0 0.0 0.00 0.00 0.00 54 1007.6
20260503174515 48 360 0.0 0.0 0.00 0.00 0.00 56 1007.7
20260503173013 49 360 0.0 0.0 0.00 0.00 0.00 53 1007.8
20260503171508 49 360 0.0 0.0 0.00 0.00 0.00 53 1007.9
20260503150106 48 360 0.0 0.9 0.00 0.00 0.00 61 1009.2
20260503100119 40 360 0.0 0.0 0.00 0.00 0.00 88 1009.6